EN

Hourly Weather Bujumbura

Today, 29 September, Tuesday

Time Temperature Precipitation Wind Pressure Humidity
00:00 +25°C° 0.4 mm 1 mps 692 mmHg 78%
01:00 +25°C° 0.4 mm 1 mps 692 mmHg 80%
02:00 +23°C° 0 mm 0 mps 691 mmHg 75%
03:00 +22°C° 0.5 mm 0 mps 691 mmHg 76%
04:00 +22°C° 0.5 mm 0 mps 692 mmHg 78%
05:00 +24°C° 0.5 mm 1 mps 692 mmHg 79%
06:00 +25°C° 0.4 mm 1 mps 692 mmHg 74%
07:00 +27°C° 0.4 mm 1 mps 693 mmHg 70%
08:00 +29°C° 0 mm 1 mps 694 mmHg 64%
09:00 +30°C° 0.6 mm 1 mps 694 mmHg 60%
10:00 +31°C° 0.6 mm 2 mps 693 mmHg 56%
11:00 +32°C° 0.6 mm 2 mps 693 mmHg 52%
12:00 +32°C° 1.2 mm 2 mps 692 mmHg 56%
13:00 +31°C° 1.2 mm 3 mps 691 mmHg 59%
14:00 +31°C° 0 mm 3 mps 691 mmHg 59%
15:00 +30°C° 0.5 mm 3 mps 691 mmHg 62%
16:00 +29°C° 0.5 mm 3 mps 691 mmHg 65%
17:00 +29°C° 0.5 mm 3 mps 690 mmHg 68%
18:00 +28°C° 0.3 mm 2 mps 691 mmHg 72%
19:00 +27°C° 0.3 mm 2 mps 692 mmHg 75%
20:00 +26°C° 0.3 mm 1 mps 692 mmHg 79%
21:00 +26°C° 0.2 mm 1 mps 692 mmHg 78%
22:00 +25°C° 0.2 mm 1 mps 693 mmHg 78%
23:00 +25°C° 0.2 mm 1 mps 693 mmHg 78%

Tomorrow, 30 September, Wednesday

Time Temperature Precipitation Wind Pressure Humidity
00:00 +25°C° 0 mm 1 mps 692 mmHg 78%
01:00 +24°C° 0 mm 1 mps 692 mmHg 79%
02:00 +24°C° 0 mm 1 mps 691 mmHg 79%
03:00 +24°C° 0 mm 1 mps 691 mmHg 79%
04:00 +24°C° 0 mm 1 mps 691 mmHg 79%
05:00 +24°C° 0 mm 1 mps 691 mmHg 79%
06:00 +25°C° 0 mm 1 mps 692 mmHg 73%
07:00 +27°C° 0 mm 1 mps 693 mmHg 67%
08:00 +29°C° 0 mm 2 mps 693 mmHg 61%
09:00 +30°C° 0.5 mm 2 mps 693 mmHg 59%
10:00 +31°C° 0.5 mm 2 mps 693 mmHg 56%
11:00 +32°C° 0.5 mm 2 mps 692 mmHg 54%
12:00 +33°C° 1.1 mm 3 mps 692 mmHg 55%
13:00 +31°C° 1.1 mm 3 mps 691 mmHg 57%
14:00 +32°C° 1.1 mm 4 mps 690 mmHg 59%
15:00 +30°C° 1 mm 3 mps 690 mmHg 61%
16:00 +30°C° 1 mm 3 mps 690 mmHg 64%
17:00 +29°C° 1 mm 3 mps 689 mmHg 67%
18:00 +28°C° 0.5 mm 2 mps 690 mmHg 71%
19:00 +27°C° 0.5 mm 2 mps 691 mmHg 74%
20:00 +26°C° 0.5 mm 1 mps 691 mmHg 78%
21:00 +25°C° 0.2 mm 1 mps 691 mmHg 78%
22:00 +25°C° 0.2 mm 1 mps 692 mmHg 78%
23:00 +23°C° 0.2 mm 0 mps 692 mmHg 77%

Day after tomorrow, 1 October, Thursday

Time Temperature Precipitation Wind Pressure Humidity
00:00 +25°C° 0.1 mm 1 mps 691 mmHg 78%
01:00 +24°C° 0.1 mm 1 mps 691 mmHg 79%
02:00 +24°C° 0.1 mm 2 mps 690 mmHg 79%
03:00 +24°C° 0 mm 2 mps 690 mmHg 79%
04:00 +24°C° 0 mm 2 mps 690 mmHg 78%
05:00 +24°C° 0 mm 2 mps 690 mmHg 78%
06:00 +25°C° 0 mm 2 mps 691 mmHg 72%
07:00 +27°C° 0 mm 2 mps 692 mmHg 66%
08:00 +29°C° 0 mm 2 mps 693 mmHg 60%
09:00 +30°C° 0.4 mm 2 mps 692 mmHg 57%
10:00 +31°C° 0.4 mm 2 mps 692 mmHg 55%
11:00 +32°C° 0.4 mm 2 mps 692 mmHg 52%
12:00 +33°C° 0.6 mm 3 mps 691 mmHg 53%
13:00 +33°C° 0.6 mm 3 mps 690 mmHg 55%
14:00 +32°C° 0.6 mm 4 mps 689 mmHg 56%
15:00 +31°C° 0.4 mm 3 mps 689 mmHg 59%
16:00 +30°C° 0.4 mm 3 mps 689 mmHg 62%
17:00 +30°C° 0.4 mm 2 mps 689 mmHg 65%
18:00 +28°C° 0.3 mm 2 mps 689 mmHg 69%
19:00 +27°C° 0.3 mm 1 mps 690 mmHg 73%
20:00 +26°C° 0.3 mm 1 mps 691 mmHg 77%
21:00 +26°C° 0.2 mm 1 mps 691 mmHg 76%
22:00 +26°C° 0.2 mm 1 mps 691 mmHg 75%
23:00 +26°C° 0.2 mm 1 mps 691 mmHg 75%

2 October, Friday

Time Temperature Precipitation Wind Pressure Humidity
00:00 +25°C° 0 mm 1 mps 691 mmHg 75%
01:00 +25°C° 0 mm 1 mps 691 mmHg 76%
02:00 +24°C° 0 mm 1 mps 690 mmHg 76%
03:00 +24°C° 0 mm 1 mps 690 mmHg 76%
04:00 +24°C° 0 mm 1 mps 691 mmHg 75%
05:00 +24°C° 0 mm 1 mps 691 mmHg 75%
06:00 +25°C° 0 mm 1 mps 691 mmHg 71%
07:00 +27°C° 0 mm 1 mps 692 mmHg 68%
08:00 +28°C° 0 mm 1 mps 693 mmHg 64%
09:00 +29°C° 0.5 mm 2 mps 693 mmHg 61%
10:00 +30°C° 0.5 mm 2 mps 693 mmHg 58%
11:00 +31°C° 0.5 mm 3 mps 692 mmHg 55%
12:00 +33°C° 0.3 mm 3 mps 692 mmHg 52%
13:00 +33°C° 0.3 mm 3 mps 691 mmHg 50%
14:00 +33°C° 0.3 mm 3 mps 690 mmHg 47%
15:00 +31°C° 0.1 mm 3 mps 690 mmHg 51%
16:00 +31°C° 0.1 mm 2 mps 689 mmHg 56%
17:00 +30°C° 0.1 mm 2 mps 689 mmHg 60%
18:00 +29°C° 0 mm 1 mps 690 mmHg 61%
19:00 +28°C° 0 mm 1 mps 690 mmHg 62%
20:00 +27°C° 0 mm 1 mps 691 mmHg 64%
21:00 +27°C° 0 mm 1 mps 691 mmHg 64%
22:00 +26°C° 0 mm 1 mps 691 mmHg 64%
23:00 +26°C° 0 mm 1 mps 691 mmHg 64%

3 October, Saturday

Time Temperature Precipitation Wind Pressure Humidity
00:00 +26°C° 0 mm 1 mps 691 mmHg 65%
01:00 +25°C° 0 mm 1 mps 690 mmHg 65%
02:00 +25°C° 0 mm 1 mps 690 mmHg 66%
03:00 +25°C° 0 mm 1 mps 690 mmHg 66%
04:00 +25°C° 0 mm 1 mps 691 mmHg 66%
05:00 +25°C° 0 mm 1 mps 691 mmHg 66%
06:00 +26°C° 0 mm 1 mps 692 mmHg 61%
07:00 +28°C° 0 mm 1 mps 693 mmHg 56%
08:00 +30°C° 0 mm 2 mps 693 mmHg 52%
09:00 +31°C° 0 mm 2 mps 693 mmHg 48%
10:00 +33°C° 0 mm 3 mps 693 mmHg 44%
11:00 +35°C° 0 mm 3 mps 693 mmHg 41%
12:00 +34°C° 0 mm 3 mps 692 mmHg 42%
13:00 +34°C° 0 mm 3 mps 691 mmHg 42%
14:00 +34°C° 0 mm 4 mps 690 mmHg 43%
15:00 +34°C° 0 mm 3 mps 690 mmHg 45%
16:00 +33°C° 0 mm 3 mps 690 mmHg 47%
17:00 +32°C° 0 mm 2 mps 690 mmHg 49%
18:00 +30°C° 0 mm 2 mps 690 mmHg 53%
19:00 +29°C° 0 mm 2 mps 691 mmHg 57%
20:00 +27°C° 0 mm 2 mps 691 mmHg 62%
21:00 +27°C° 0 mm 2 mps 691 mmHg 61%
22:00 +27°C° 0 mm 2 mps 691 mmHg 61%
23:00 +26°C° 0 mm 1 mps 692 mmHg 60%

4 October, Sunday

Time Temperature Precipitation Wind Pressure Humidity
00:00 +26°C° 0 mm 1 mps 691 mmHg 62%
01:00 +25°C° 0 mm 1 mps 691 mmHg 64%
02:00 +25°C° 0 mm 1 mps 691 mmHg 66%
03:00 +25°C° 0 mm 1 mps 691 mmHg 66%
04:00 +25°C° 0 mm 1 mps 691 mmHg 66%
05:00 +25°C° 0 mm 1 mps 692 mmHg 66%
06:00 +26°C° 0 mm 1 mps 692 mmHg 61%
07:00 +28°C° 0 mm 1 mps 693 mmHg 56%
08:00 +29°C° 0 mm 1 mps 694 mmHg 51%
09:00 +31°C° 0 mm 1 mps 693 mmHg 47%
10:00 +34°C° 0 mm 2 mps 693 mmHg 43%
11:00 +36°C° 0 mm 2 mps 693 mmHg 39%
12:00 +35°C° 0 mm 3 mps 692 mmHg 42%
13:00 +34°C° 0 mm 3 mps 691 mmHg 45%
14:00 +33°C° 0 mm 4 mps 690 mmHg 48%
15:00 +31°C° 0 mm 3 mps 690 mmHg 50%
16:00 +31°C° 0 mm 3 mps 690 mmHg 52%
17:00 +31°C° 0 mm 3 mps 690 mmHg 54%
18:00 +30°C° 0 mm 2 mps 690 mmHg 57%
19:00 +29°C° 0 mm 1 mps 691 mmHg 60%
20:00 +28°C° 0 mm 1 mps 692 mmHg 63%
21:00 +27°C° 0 mm 1 mps 692 mmHg 63%
22:00 +27°C° 0 mm 1 mps 692 mmHg 62%
23:00 +26°C° 0 mm 1 mps 692 mmHg 62%
Show more